Watford City, ND

2:01 PM CST on December 05, 2019 (GMT -0600)
Watford City

Weather History for KS25 - October, 2019

Change the Weather History Date:

Saturday, October 19, 2019

  Actual Average (KISN) Record (KISN)
Temperature  
Mean Temperature 42 °F -  
Max Temperature 57 °F 58 °F 82 °F (1947)
Min Temperature 26 °F 30 °F 7 °F (1960)
Degree Days  
Heating Degree Days 24    
Moisture  
Dew Point 32 °F    
Average Humidity 68    
Maximum Humidity 93    
Minimum Humidity 36    
Precipitation  
Precipitation 0.00 in - - ()
Sea Level Pressure  
Sea Level Pressure 29.61 in    
Wind  
Wind Speed 10 mph (WSW)    
Max Wind Speed 22 mph    
Max Gust Speed 28 mph    
Visibility 10 miles    
Events Rain    
Averages and records for this station are not official NWS values.
T = Trace of Precipitation, MM = Missing Value Source: NWS Daily Summary

Daily Weather History Graph

Daily Weather History Graph

Search for Another Location

Airport or City:

Astronomy

Oct. 19, 2019 Rise Set
Actual Time 8:17 AM CDT 6:57 PM CDT
Civil Twilight 7:46 AM CDT 7:28 PM CDT
Nautical Twilight 7:10 AM CDT 8:04 PM CDT
Astronomical Twilight 6:34 AM CDT 8:40 PM CDT
Moon 10:49 PM CDT (10/19) 2:10 PM CDT (10/19)
Length of Visible Light 11h 42m
Length of Day
10h 39m
Waning Gibbous, 69% of the Moon is Illuminated
Oct 19
Waning Gibbous
Oct 21
Last Quarter
Oct 27
New
Nov 4
First Quarter
Nov 12
Full

Hourly Weather History & Observations

Time (CDT) Temp. Windchill Dew Point Humidity Pressure Visibility Wind Dir Wind Speed Gust Speed Precip Events Conditions
12:15 AM 39.2 °F 33.6 °F 30.2 °F 70% 29.59 in 10.0 mi SW 8.1 mph - N/A   Clear
12:35 AM 37.4 °F 31.4 °F 30.2 °F 75% 29.59 in 10.0 mi SW 8.1 mph - N/A   Clear
12:55 AM 37.4 °F 31.4 °F 32.0 °F 81% 29.59 in 10.0 mi SW 8.1 mph - N/A   Clear
1:15 AM 39.2 °F 32.5 °F 32.0 °F 75% 29.60 in 10.0 mi SW 10.4 mph - N/A   Clear
1:35 AM 37.4 °F 32.1 °F 32.0 °F 81% 29.60 in 10.0 mi SW 6.9 mph - N/A   Clear
1:55 AM 35.6 °F 29.9 °F 30.2 °F 81% 29.60 in 10.0 mi SW 6.9 mph - N/A   Clear
2:15 AM 37.4 °F 32.1 °F 32.0 °F 81% 29.60 in 10.0 mi SW 6.9 mph - N/A   Clear
2:35 AM 37.4 °F 31.4 °F 32.0 °F 81% 29.60 in 10.0 mi SW 8.1 mph - N/A   Clear
2:55 AM 35.6 °F 29.2 °F 32.0 °F 87% 29.60 in 10.0 mi SW 8.1 mph - N/A   Clear
3:15 AM 35.6 °F 28.6 °F 32.0 °F 87% 29.60 in 10.0 mi SW 9.2 mph - N/A   Clear
3:35 AM 37.4 °F 30.3 °F 32.0 °F 81% 29.60 in 10.0 mi SW 10.4 mph - N/A   Clear
3:55 AM 37.4 °F 29.8 °F 32.0 °F 81% 29.61 in 10.0 mi SW 11.5 mph - N/A   Clear
4:15 AM 35.6 °F 29.2 °F 32.0 °F 87% 29.60 in 10.0 mi SW 8.1 mph - N/A   Partly Cloudy
4:35 AM 37.4 °F 30.3 °F 32.0 °F 81% 29.60 in 10.0 mi SW 10.4 mph - N/A   Partly Cloudy
5:15 AM 42.8 °F 35.8 °F 35.6 °F 76% 29.60 in 10.0 mi WSW 13.8 mph - N/A   Clear
5:35 AM 42.8 °F 33.8 °F 39.2 °F 87% 29.61 in 10.0 mi West 21.9 mph - N/A   Partly Cloudy
5:55 AM 42.8 °F 34.8 °F 37.4 °F 81% 29.61 in 10.0 mi WSW 17.3 mph 26.5 mph N/A   Mostly Cloudy
6:15 AM 41.0 °F 32.2 °F 39.2 °F 93% 29.62 in 8.0 mi West 18.4 mph 25.3 mph N/A Rain Light Rain
6:35 AM 41.0 °F 33.5 °F 39.2 °F 93% 29.62 in 8.0 mi West 13.8 mph - N/A Rain Light Rain
6:55 AM 42.8 °F 34.8 °F 39.2 °F 87% 29.62 in 10.0 mi West 17.3 mph 27.6 mph N/A Rain Light Rain
7:15 AM 41.0 °F 34.7 °F 39.2 °F 93% 29.62 in 10.0 mi WSW 10.4 mph - N/A Rain Light Rain
7:35 AM 41.0 °F 35.2 °F 39.2 °F 93% 29.62 in 10.0 mi WSW 9.2 mph - N/A   Partly Cloudy
7:55 AM 41.0 °F 34.7 °F 37.4 °F 87% 29.61 in 10.0 mi SW 10.4 mph - N/A   Scattered Clouds
8:15 AM 39.2 °F 32.0 °F 37.4 °F 93% 29.61 in 10.0 mi SW 11.5 mph - N/A   Mostly Cloudy
8:35 AM 39.2 °F 33.0 °F 37.4 °F 93% 29.61 in 10.0 mi WSW 9.2 mph - N/A   Partly Cloudy
8:55 AM 41.0 °F 34.7 °F 37.4 °F 87% 29.61 in 10.0 mi WSW 10.4 mph - N/A   Scattered Clouds
9:15 AM 41.0 °F 34.3 °F 35.6 °F 81% 29.61 in 10.0 mi WSW 11.5 mph - N/A   Mostly Cloudy
9:35 AM 41.0 °F 33.9 °F 33.8 °F 76% 29.61 in 10.0 mi West 12.7 mph - N/A   Scattered Clouds
9:55 AM 42.8 °F 35.4 °F 33.8 °F 70% 29.61 in 10.0 mi West 15.0 mph 20.7 mph N/A   Clear
10:15 AM 44.6 °F 37.8 °F 33.8 °F 66% 29.61 in 10.0 mi West 15.0 mph 24.2 mph N/A   Clear
10:35 AM 44.6 °F 37.4 °F 33.8 °F 66% 29.62 in 10.0 mi West 16.1 mph 24.2 mph N/A   Clear
10:55 AM 44.6 °F 38.1 °F 33.8 °F 66% 29.62 in 10.0 mi West 13.8 mph 19.6 mph N/A   Partly Cloudy
11:15 AM 46.4 °F 39.5 °F 32.0 °F 57% 29.62 in 10.0 mi West 17.3 mph - N/A   Scattered Clouds
11:35 AM 48.2 °F - 33.8 °F 58% 29.62 in 10.0 mi WSW 16.1 mph - N/A   Partly Cloudy
11:55 AM 50.0 °F - 32.0 °F 50% 29.62 in 10.0 mi West 19.6 mph 25.3 mph N/A   Clear
12:15 PM 51.8 °F - 33.8 °F 50% 29.62 in 10.0 mi West 18.4 mph - N/A   Clear
12:35 PM 51.8 °F - 33.8 °F 50% 29.62 in 10.0 mi West 13.8 mph 23.0 mph N/A   Clear
12:55 PM 51.8 °F - 32.0 °F 47% 29.62 in 10.0 mi West 16.1 mph - N/A   Clear
1:15 PM 51.8 °F - 32.0 °F 47% 29.62 in 10.0 mi West 17.3 mph 24.2 mph N/A   Clear
1:35 PM 53.6 °F - 32.0 °F 44% 29.61 in 10.0 mi West 16.1 mph - N/A   Clear
1:55 PM 53.6 °F - 32.0 °F 44% 29.61 in 10.0 mi West 18.4 mph - N/A   Clear
2:15 PM 55.4 °F - 32.0 °F 41% 29.60 in 10.0 mi West 16.1 mph - N/A   Clear
2:35 PM 55.4 °F - 32.0 °F 41% 29.60 in 10.0 mi West 16.1 mph - N/A   Clear
2:55 PM 57.2 °F - 33.8 °F 41% 29.60 in 10.0 mi West 15.0 mph 21.9 mph N/A   Clear
3:15 PM 57.2 °F - 32.0 °F 38% 29.60 in 10.0 mi West 19.6 mph - N/A   Clear
3:55 PM 57.2 °F - 32.0 °F 38% 29.60 in 10.0 mi West 18.4 mph 25.3 mph N/A   Clear
4:15 PM 57.2 °F - 32.0 °F 38% 29.60 in 10.0 mi WNW 13.8 mph 25.3 mph N/A   Clear
4:35 PM 57.2 °F - 30.2 °F 36% 29.60 in 10.0 mi West 16.1 mph 25.3 mph N/A   Clear
4:55 PM 57.2 °F - 30.2 °F 36% 29.60 in 10.0 mi West 17.3 mph 23.0 mph N/A   Clear
5:15 PM 55.4 °F - 28.4 °F 36% 29.60 in 10.0 mi West 15.0 mph 21.9 mph N/A   Clear
5:35 PM 55.4 °F - 28.4 °F 36% 29.60 in 10.0 mi West 15.0 mph - N/A   Clear
5:55 PM 55.4 °F - 28.4 °F 36% 29.60 in 10.0 mi West 9.2 mph 17.3 mph N/A   Clear
6:15 PM 53.6 °F - 28.4 °F 38% 29.60 in 10.0 mi West 6.9 mph - N/A   Clear
6:35 PM 51.8 °F - 28.4 °F 41% 29.60 in 10.0 mi West 6.9 mph - N/A   Clear
6:55 PM 48.2 °F - 26.6 °F 43% 29.60 in 10.0 mi West 5.8 mph - N/A   Clear
7:15 PM 44.6 °F 43.1 °F 28.4 °F 53% 29.60 in 10.0 mi WSW 3.5 mph - N/A   Clear
7:35 PM 42.8 °F 41.1 °F 28.4 °F 57% 29.60 in 10.0 mi SW 3.5 mph - N/A   Clear
7:55 PM 39.2 °F 37.0 °F 26.6 °F 61% 29.61 in 10.0 mi South 3.5 mph - N/A   Clear
8:15 PM 37.4 °F - 26.6 °F 65% 29.61 in 10.0 mi Calm Calm - N/A   Clear
8:35 PM 39.2 °F - 28.4 °F 65% 29.61 in 10.0 mi Calm Calm - N/A   Clear
8:55 PM 35.6 °F - 28.4 °F 75% 29.61 in 10.0 mi Calm Calm - N/A   Clear
9:15 PM 33.8 °F - 28.4 °F 81% 29.61 in 10.0 mi Calm Calm - N/A   Clear
9:35 PM 33.8 °F - 28.4 °F 81% 29.61 in 10.0 mi Calm Calm - N/A   Clear
9:55 PM 32.0 °F - 28.4 °F 87% 29.61 in 10.0 mi Calm Calm - N/A   Clear
10:35 PM 30.2 °F - 26.6 °F 86% 29.62 in 10.0 mi Calm Calm - N/A   Clear
10:55 PM 30.2 °F 26.7 °F 26.6 °F 86% 29.62 in 10.0 mi WSW 3.5 mph - N/A   Clear
11:15 PM 30.2 °F - 26.6 °F 86% 29.62 in 10.0 mi Calm Calm - N/A   Clear
11:35 PM 26.6 °F - 24.8 °F 93% 29.62 in 10.0 mi Calm Calm - N/A   Clear
11:55 PM 28.4 °F - 26.6 °F 93% 29.62 in 10.0 mi Calm Calm - N/A   Clear